When you browse on this site, cookies collect data to enhance your experience and personalize the content and advertising you see.
Visit our Privacy Policy to learn more. By continuing to use the site, you agree to this use of cookies and data.
  • Em Portugal
  • Lista de países
  • Para 7 dias
  • Temperatura da água
  • Mapa do tempo
  • Widgets de tempo
  • user-avatar
    Iniciar Sessão

    Previsão horária em Nyíregyháza

    Hoje, 17 Setembro, Terça-feira

    Tempo Temperatura Precipitação Vento Pressão Humidade
    00:00 +18°C° 0 mm 2 m/s 751 mmHg 72%
    01:00 +18°C° 0 mm 2 m/s 751 mmHg 79%
    02:00 +18°C° 0.1 mm 2 m/s 751 mmHg 79%
    03:00 +18°C° 0.1 mm 2 m/s 750 mmHg 79%
    04:00 +18°C° 0.1 mm 2 m/s 750 mmHg 78%
    05:00 +18°C° 0 mm 2 m/s 750 mmHg 78%
    06:00 +17°C° 0 mm 3 m/s 750 mmHg 78%
    07:00 +17°C° 0 mm 3 m/s 750 mmHg 78%
    08:00 +17°C° 0 mm 3 m/s 750 mmHg 74%
    09:00 +18°C° 0 mm 3 m/s 751 mmHg 70%
    10:00 +18°C° 0 mm 3 m/s 751 mmHg 66%
    11:00 +19°C° 0 mm 3 m/s 750 mmHg 62%
    12:00 +20°C° 0 mm 2 m/s 750 mmHg 58%
    13:00 +21°C° 0 mm 2 m/s 750 mmHg 54%
    14:00 +22°C° 0 mm 3 m/s 749 mmHg 52%
    15:00 +24°C° 0 mm 3 m/s 749 mmHg 50%
    16:00 +24°C° 0 mm 3 m/s 749 mmHg 49%
    17:00 +22°C° 0 mm 4 m/s 749 mmHg 53%
    18:00 +20°C° 0 mm 5 m/s 749 mmHg 57%
    19:00 +19°C° 0 mm 5 m/s 749 mmHg 60%
    20:00 +17°C° 0 mm 5 m/s 749 mmHg 60%
    21:00 +17°C° 0 mm 5 m/s 749 mmHg 60%
    22:00 +16°C° 0 mm 5 m/s 749 mmHg 59%
    23:00 +15°C° 0 mm 5 m/s 749 mmHg 60%

    Amanhã, 18 Setembro, Quarta-feira

    Tempo Temperatura Precipitação Vento Pressão Humidade
    00:00 +15°C° 0 mm 5 m/s 749 mmHg 60%
    01:00 +14°C° 0 mm 4 m/s 750 mmHg 60%
    02:00 +13°C° 0 mm 4 m/s 750 mmHg 61%
    03:00 +12°C° 0 mm 3 m/s 751 mmHg 63%
    04:00 +11°C° 0 mm 3 m/s 751 mmHg 64%
    05:00 +11°C° 0 mm 3 m/s 752 mmHg 60%
    06:00 +11°C° 0 mm 3 m/s 752 mmHg 56%
    07:00 +11°C° 0 mm 3 m/s 753 mmHg 52%
    08:00 +14°C° 0 mm 2 m/s 754 mmHg 48%
    09:00 +15°C° 0 mm 2 m/s 754 mmHg 44%
    10:00 +16°C° 0 mm 2 m/s 755 mmHg 40%
    11:00 +17°C° 0 mm 2 m/s 755 mmHg 37%
    12:00 +17°C° 0 mm 2 m/s 755 mmHg 35%
    13:00 +18°C° 0 mm 2 m/s 755 mmHg 33%
    14:00 +18°C° 0 mm 2 m/s 755 mmHg 34%
    15:00 +18°C° 0 mm 2 m/s 755 mmHg 34%
    16:00 +19°C° 0 mm 1 m/s 755 mmHg 35%
    17:00 +16°C° 0 mm 2 m/s 756 mmHg 40%
    18:00 +14°C° 0 mm 2 m/s 756 mmHg 44%
    19:00 +11°C° 0 mm 3 m/s 756 mmHg 49%
    20:00 +10°C° 0 mm 2 m/s 757 mmHg 53%
    21:00 +10°C° 0 mm 2 m/s 757 mmHg 57%
    22:00 +9°C° 0 mm 2 m/s 757 mmHg 61%
    23:00 +9°C° 0 mm 1 m/s 757 mmHg 62%

    Depois de amanhã, 19 Setembro, Quinta-feira

    Tempo Temperatura Precipitação Vento Pressão Humidade
    00:00 +9°C° 0 mm 1 m/s 757 mmHg 64%
    01:00 +9°C° 0 mm 1 m/s 757 mmHg 65%
    02:00 +8°C° 0 mm 1 m/s 757 mmHg 67%
    03:00 +8°C° 0 mm 1 m/s 757 mmHg 68%
    04:00 +8°C° 0 mm 1 m/s 757 mmHg 70%
    05:00 +8°C° 0 mm 1 m/s 757 mmHg 67%
    06:00 +8°C° 0 mm 2 m/s 757 mmHg 65%
    07:00 +9°C° 0 mm 2 m/s 757 mmHg 63%
    08:00 +10°C° 0 mm 3 m/s 757 mmHg 59%
    09:00 +12°C° 0 mm 4 m/s 758 mmHg 55%
    10:00 +14°C° 0 mm 5 m/s 758 mmHg 51%
    11:00 +14°C° 0 mm 4 m/s 758 mmHg 48%
    12:00 +15°C° 0 mm 4 m/s 757 mmHg 45%
    13:00 +17°C° 0 mm 3 m/s 757 mmHg 42%
    14:00 +16°C° 0 mm 3 m/s 757 mmHg 41%
    15:00 +16°C° 0 mm 3 m/s 757 mmHg 41%
    16:00 +16°C° 0 mm 3 m/s 757 mmHg 41%
    17:00 +13°C° 0 mm 3 m/s 757 mmHg 44%
    18:00 +12°C° 0 mm 2 m/s 758 mmHg 48%
    19:00 +11°C° 0 mm 1 m/s 758 mmHg 52%
    20:00 +10°C° 0 mm 1 m/s 759 mmHg 55%
    21:00 +9°C° 0 mm 1 m/s 759 mmHg 57%
    22:00 +9°C° 0 mm 1 m/s 759 mmHg 59%
    23:00 +9°C° 0 mm 1 m/s 759 mmHg 60%

    20 Setembro, Sexta-feira

    Tempo Temperatura Precipitação Vento Pressão Humidade
    00:00 +9°C° 0 mm 1 m/s 759 mmHg 61%
    01:00 +9°C° 0 mm 1 m/s 759 mmHg 61%
    02:00 +8°C° 0 mm 1 m/s 759 mmHg 64%
    03:00 +8°C° 0 mm 1 m/s 759 mmHg 66%
    04:00 +8°C° 0 mm 1 m/s 759 mmHg 69%
    05:00 +8°C° 0 mm 1 m/s 760 mmHg 67%
    06:00 +9°C° 0 mm 1 m/s 760 mmHg 65%
    07:00 +10°C° 0 mm 1 m/s 760 mmHg 63%
    08:00 +12°C° 0 mm 2 m/s 760 mmHg 57%
    09:00 +14°C° 0 mm 2 m/s 760 mmHg 50%
    10:00 +16°C° 0 mm 3 m/s 760 mmHg 44%
    11:00 +17°C° 0 mm 3 m/s 760 mmHg 42%
    12:00 +17°C° 0 mm 2 m/s 759 mmHg 39%
    13:00 +17°C° 0 mm 2 m/s 759 mmHg 37%
    14:00 +17°C° 0 mm 2 m/s 759 mmHg 37%
    15:00 +17°C° 0 mm 2 m/s 758 mmHg 38%
    16:00 +18°C° 0 mm 1 m/s 758 mmHg 38%
    17:00 +16°C° 0 mm 1 m/s 759 mmHg 42%
    18:00 +14°C° 0 mm 1 m/s 759 mmHg 46%
    19:00 +12°C° 0 mm 1 m/s 760 mmHg 49%
    20:00 +12°C° 0 mm 1 m/s 760 mmHg 52%
    21:00 +12°C° 0 mm 1 m/s 760 mmHg 54%
    22:00 +11°C° 0 mm 1 m/s 760 mmHg 56%
    23:00 +10°C° 0 mm 2 m/s 760 mmHg 60%

    21 Setembro, Sábado

    Tempo Temperatura Precipitação Vento Pressão Humidade
    00:00 +9°C° 0 mm 2 m/s 760 mmHg 65%
    01:00 +9°C° 0 mm 2 m/s 760 mmHg 69%
    02:00 +8°C° 0 mm 2 m/s 760 mmHg 73%
    03:00 +8°C° 0 mm 2 m/s 760 mmHg 76%
    04:00 +7°C° 0 mm 2 m/s 760 mmHg 79%
    05:00 +8°C° 0 mm 2 m/s 760 mmHg 76%
    06:00 +9°C° 0 mm 2 m/s 760 mmHg 72%
    07:00 +10°C° 0 mm 2 m/s 760 mmHg 69%
    08:00 +13°C° 0 mm 2 m/s 760 mmHg 61%
    09:00 +15°C° 0 mm 2 m/s 761 mmHg 54%
    10:00 +17°C° 0 mm 2 m/s 761 mmHg 46%
    11:00 +18°C° 0 mm 2 m/s 760 mmHg 44%
    12:00 +18°C° 0 mm 2 m/s 760 mmHg 41%
    13:00 +19°C° 0 mm 2 m/s 760 mmHg 39%
    14:00 +19°C° 0 mm 2 m/s 760 mmHg 39%
    15:00 +20°C° 0 mm 1 m/s 759 mmHg 40%
    16:00 +20°C° 0 mm 1 m/s 759 mmHg 41%
    17:00 +18°C° 0 mm 1 m/s 759 mmHg 46%
    18:00 +15°C° 0 mm 1 m/s 760 mmHg 52%
    19:00 +13°C° 0 mm 1 m/s 760 mmHg 58%
    20:00 +13°C° 0 mm 1 m/s 760 mmHg 61%
    21:00 +13°C° 0 mm 1 m/s 760 mmHg 64%
    22:00 +12°C° 0 mm 1 m/s 760 mmHg 67%
    23:00 +12°C° 0 mm 2 m/s 760 mmHg 71%

    22 Setembro, Domingo

    Tempo Temperatura Precipitação Vento Pressão Humidade
    00:00 +12°C° 0 mm 2 m/s 760 mmHg 74%
    01:00 +10°C° 0 mm 2 m/s 760 mmHg 78%
    02:00 +10°C° 0 mm 2 m/s 760 mmHg 81%
    03:00 +9°C° 0 mm 2 m/s 760 mmHg 84%
    04:00 +9°C° 0 mm 2 m/s 760 mmHg 87%
    05:00 +10°C° 0 mm 2 m/s 760 mmHg 83%
    06:00 +10°C° 0 mm 2 m/s 760 mmHg 80%
    07:00 +12°C° 0 mm 2 m/s 761 mmHg 76%
    08:00 +14°C° 0 mm 2 m/s 761 mmHg 68%
    09:00 +16°C° 0 mm 2 m/s 761 mmHg 60%
    10:00 +18°C° 0 mm 2 m/s 761 mmHg 52%
    11:00 +19°C° 0 mm 2 m/s 761 mmHg 47%
    12:00 +20°C° 0 mm 2 m/s 760 mmHg 42%
    13:00 +21°C° 0 mm 2 m/s 760 mmHg 37%
    14:00 +21°C° 0 mm 2 m/s 760 mmHg 37%
    15:00 +21°C° 0 mm 2 m/s 759 mmHg 37%
    16:00 +21°C° 0 mm 2 m/s 759 mmHg 38%
    17:00 +19°C° 0 mm 2 m/s 759 mmHg 41%
    18:00 +17°C° 0 mm 2 m/s 760 mmHg 45%
    19:00 +15°C° 0 mm 2 m/s 760 mmHg 49%
    20:00 +15°C° 0 mm 2 m/s 760 mmHg 50%
    21:00 +14°C° 0 mm 2 m/s 760 mmHg 51%
    22:00 +14°C° 0 mm 2 m/s 760 mmHg 52%
    23:00 +13°C° 0 mm 2 m/s 761 mmHg 54%
    Mostrar mais